Location: Observatory
(52.1446°N, 0.4624°W)
Time: 00:30:17
(UTC+00:00)

ISS - Pass Details

Date: 07 December 2021
Orbit: 413 x 422 km, 51.6° (Epoch: 28 January)

Event Time Altitude Azimuth Distance (km) Brightness Sun altitude
Rises 17:37:16 0° 280° (W) 2,387 1.2 -15.3°
Reaches altitude 10° 17:39:52 10° 260° (W) 1,516 0.4 -15.7°
Maximum altitude 17:42:11 17° 217° (SW) 1,145 -0.8 -16.1°
Drops below altitude 10° 17:44:29 10° 174° (S) 1,505 -0.8 -16.4°
Enters shadow 17:47:30 -1° 152° (SSE) 2,529 0.1 -16.8°
